[[{"header":{"parameterUnit":"m.s-1","parameterCategory":1,"la1":30.2991,"la2":30.254,"lo1":-89.0895,"lo2":-89.0444,"dy":0.0017,"dx":0.0017,"nx":28,"ny":28,"refTime":"2024-10-09T09:00:00:Z","depth":0,"parameterNumber":2,"parameterNumberName":"U-component_of_WINDS"},"data":[0,0,0,0,0,0,0,0,0,0,0,0,0,0,0,0,0,0,0,0,0,0,0,0,0,0,0,0,0,0,0,0,0,0,0,0,0,0,0,0,0,0,0,0,0,0,0,0,0,0,0,0,0,0,0,0,0,0,-1.3743,-1.3744,0,-1.3822,-1.3823,-1.3823,-1.3782,-1.378,-1.3778,-1.3776,-1.3858,-1.3863,-1.3867,0,0,0,0,0,0,0,0,0,0,0,0,0,-1.3558,-1.3562,-1.3743,-1.3744,-1.3745,-1.3822,-1.3823,-1.3824,-1.3783,-1.378,-1.3778,-1.3775,-1.3857,-1.3862,-1.3867,0,0,0,0,0,0,0,0,0,0,0,0,0,-1.3638,-1.3563,-1.3743,-1.3734,-1.3734,-1.3821,-1.3823,-1.3824,-1.3783,-1.378,-1.3777,-1.3774,-1.3855,-1.3862,-1.3868,-1.3969,0,0,-1.3887,-1.3889,0,0,0,0,0,0,0,0,-1.3634,-1.3645,-1.3734,-1.3734,-1.3735,-1.3789,-1.3788,-1.3873,-1.3784,-1.3765,-1.3776,-1.3773,-1.3838,-1.3845,-1.3867,-1.3973,-1.3977,-1.3887,-1.3891,-1.3894,-1.3895,0,0,0,0,0,0,0,-1.3628,-1.3641,-1.3774,-1.3735,-1.3736,-1.3726,-1.3734,-1.3804,-1.3818,-1.3766,-1.3763,-1.3773,-1.3838,-1.3861,-1.3869,-1.3978,-1.3887,-1.3893,-1.3896,-1.3899,-1.4172,-1.4175,0,0,0,0,0,0,-1.3623,-1.3637,-1.3772,-1.3776,-1.3675,-1.3732,-1.3741,-1.3775,-1.3817,-1.3821,-1.3776,-1.3771,-1.3852,-1.3862,-1.3872,-1.3994,-1.3894,-1.39,-1.3903,-1.4168,-1.4172,-1.4176,0,0,0,0,0,0,-1.3619,-1.3635,-1.3768,-1.3706,-1.3722,-1.3738,-1.3777,-1.3778,-1.3802,-1.3824,-1.3827,-1.3797,-1.385,-1.3863,-1.3945,-1.3997,-1.3902,-1.3908,-1.4164,-1.4169,-1.4174,-1.424,0,0,0,0,0,0,-1.3614,-1.3634,-1.3673,-1.3707,-1.3726,-1.3841,-1.378,-1.3782,-1.3812,-1.3807,-1.3845,-1.3849,-1.3849,-1.3936,-1.3952,-1.4003,-1.3913,-1.4159,-1.4166,-1.4173,-1.4233,-1.4247,-1.4258,0,0,0,0,0,-1.3607,-1.3688,-1.3675,-1.3691,-1.3774,-1.3844,-1.3855,-1.3852,-1.3817,-1.3856,-1.387,-1.3848,-1.3988,-1.3945,-1.3962,-1.4016,-1.4156,-1.4164,-1.4172,-1.4228,-1.4244,-1.4258,0,0,0,0,0,0,-1.3661,-1.3693,-1.3678,-1.3773,-1.3806,-1.3837,-1.3886,-1.387,-1.3914,-1.3907,-1.3903,-1.3912,-1.3998,-1.4015,-1.3967,-1.4117,-1.4067,-1.4078,-1.4103,-1.4119,-1.4131,-1.4126,-1.3918,0,0,0,0,0,-1.3683,-1.3736,-1.3762,-1.3843,-1.386,-1.387,-1.3901,-1.3896,-1.393,-1.3944,-1.3965,-1.3999,-1.4051,-1.4086,-1.4135,-1.4235,-1.4243,-1.4281,-1.4293,-1.4303,-1.4314,-1.4369,-1.4386,-1.4202,-1.4202,-1.4202,0,0,-1.3731,-1.3755,-1.3789,-1.3854,-1.3879,-1.3935,-1.3883,-1.3944,-1.3986,-1.3954,-1.4033,-1.4049,-1.4087,-1.418,-1.4221,-1.4197,-1.4366,-1.4313,-1.4321,-1.4327,-1.4379,-1.4396,-1.4412,-1.4207,-1.4206,-1.4206,0,0,-1.3846,-1.3869,-1.394,-1.3966,-1.4004,-1.401,-1.4027,-1.406,-1.407,-1.4149,-1.4126,-1.4176,-1.4265,-1.4294,-1.432,-1.4445,-1.4426,-1.4461,-1.4527,-1.4581,-1.4595,-1.4608,-1.4654,-1.4671,-1.4471,-1.4471,-1.4471,0,-1.3901,-1.3984,-1.3978,-1.4041,-1.4071,-1.4043,-1.4115,-1.414,-1.4193,-1.4215,-1.4186,-1.4297,-1.4321,-1.442,-1.445,-1.4472,-1.4492,-1.4458,-1.4594,-1.4607,-1.4619,-1.4663,-1.468,-1.4475,-1.4475,-1.4474,-1.4474,0,-1.405,-1.4108,-1.416,-1.4211,-1.4246,-1.4313,-1.4318,-1.4354,-1.4346,-1.4355,-1.4437,-1.4464,-1.4518,-1.454,-1.4533,-1.4639,-1.4622,-1.4594,-1.4543,-1.464,-1.4682,-1.4698,-1.4481,-1.448,-1.4478,-1.4477,0,0,-1.4203,-1.4249,-1.4269,-1.4292,-1.4332,-1.4377,-1.4442,-1.4495,-1.4527,-1.4563,-1.4619,-1.4694,-1.4668,-1.4698,-1.4693,-1.474,-1.4839,-1.4706,-1.4707,-1.4731,-1.4958,-1.4981,-1.5001,-1.4826,-1.4829,-1.4831,-1.4955,0,-1.4323,-1.4438,-1.4434,-1.4542,-1.4596,-1.4569,-1.4627,-1.4657,-1.4667,-1.4715,-1.4726,-1.478,-1.474,-1.4758,-1.4803,-1.4818,-1.4885,-1.4808,-1.4879,-1.4882,-1.4872,-1.5022,-1.5046,-1.5162,-1.4971,-1.4974,-1.4976,0,-1.4479,-1.452,-1.4633,-1.4665,-1.4687,-1.4739,-1.4787,-1.4832,-1.4866,-1.487,-1.4903,-1.4891,-1.4958,-1.4903,-1.4996,-1.4944,-1.4972,-1.4984,-1.4988,-1.4997,-1.4936,-1.5036,-1.5199,-1.5217,-1.5001,-1.4999,-1.4997,0,-1.4581,-1.4665,-1.4744,-1.4764,-1.4803,-1.484,-1.4858,-1.4889,-1.492,-1.4962,-1.4983,-1.5031,-1.5059,-1.5097,-1.5098,-1.5059,-1.5193,-1.5138,-1.5199,-1.5199,-1.5231,-1.5229,-1.5402,-1.5245,-1.5245,-1.5245,-1.5244,0,-1.4717,-1.4788,-1.4791,-1.484,-1.4918,-1.4912,-1.499,-1.5004,-1.5032,-1.5083,-1.5062,-1.5111,-1.5108,-1.5158,-1.5159,-1.5236,-1.5248,-1.5254,-1.5254,-1.5257,-1.5257,-1.5278,-1.527,-1.5249,-1.5248,-1.5247,-1.5247,0,-1.4846,-1.4851,-1.4935,-1.4964,-1.4973,-1.503,-1.5055,-1.5101,-1.5109,-1.5174,-1.5189,-1.5201,-1.5258,-1.5262,-1.5328,-1.5328,-1.5423,-1.5413,-1.5412,-1.5411,-1.5472,-1.5467,-1.5666,-1.5693,-1.5516,-1.5518,-1.5519,0,-1.4934,-1.4987,-1.5022,-1.5054,-1.5074,-1.5127,-1.5159,-1.5155,-1.5189,-1.5232,-1.5274,-1.5328,-1.5372,-1.5464,-1.5479,-1.5529,-1.5522,-1.5588,-1.5529,-1.5531,-1.5525,-1.5523,-1.5529,-1.56,-1.5602,-1.5604,-1.5605,0,-1.5089,-1.5088,-1.5135,-1.5183,-1.5222,-1.5259,-1.5294,-1.5322,-1.5322,-1.5362,-1.542,-1.5454,-1.552,-1.5576,-1.5624,-1.5643,-1.5625,-1.5623,-1.564,-1.5645,-1.5643,-1.5647,-1.5445,-1.5619,-1.5618,-1.5617,-1.5616,-1.5616,-1.5201,-1.5248,-1.5279,-1.5332,-1.5358,-1.5391,-1.5436,-1.5449,-1.5497,-1.5551,-1.5545,-1.5609,-1.5642,-1.5706,-1.5728,-1.5778,-1.5756,-1.578,-1.5787,-1.5793,-1.5801,-1.5633,-1.5787,-1.5786,-1.5786,-1.5786,-1.5785,0,-1.5357,-1.5375,-1.5424,-1.5474,-1.5515,-1.5493,-1.553,-1.5567,-1.5624,-1.5655,-1.5698,-1.5765,-1.5817,-1.5836,-1.5887,-1.5924,-1.5917,-1.5938,-1.5937,-1.5942,-1.5817,-1.5798,-1.5943,-1.5943,-1.5943,-1.5943,-1.5943,-1.5943,-1.5443,-1.5521,-1.5524,-1.5615,-1.5633,-1.5695,-1.5719,-1.5749,-1.5774,-1.5849,-1.5893,-1.5904,-1.5931,-1.5984,-1.6032,-1.6036,-1.6056,-1.6081,-1.6082,-1.5966,-1.595,-1.5935,-1.5917,-1.6085,-1.6086,-1.6203,-1.6204,-1.6205]},{"header":{"parameterUnit":"m.s-1","parameterCategory":1,"la1":30.2991,"la2":30.254,"lo1":-89.0895,"lo2":-89.0444,"dy":0.0017,"dx":0.0017,"nx":28,"ny":28,"refTime":"2024-10-09T09:00:00:Z","depth":0,"parameterNumber":3,"parameterNumberName":"V-component_of_WINDS"},"data":[0,0,0,0,0,0,0,0,0,0,0,0,0,0,0,0,0,0,0,0,0,0,0,0,0,0,0,0,0,0,0,0,0,0,0,0,0,0,0,0,0,0,0,0,0,0,0,0,0,0,0,0,0,0,0,0,0,0,-5.5681,-5.5681,0,-5.5759,-5.576,-5.5761,-5.5679,-5.5676,-5.5673,-5.567,-5.5745,-5.575,-5.5754,0,0,0,0,0,0,0,0,0,0,0,0,0,-5.5454,-5.5458,-5.568,-5.5682,-5.5683,-5.5759,-5.576,-5.5761,-5.5679,-5.5676,-5.5672,-5.5668,-5.5743,-5.5749,-5.5755,0,0,0,0,0,0,0,0,0,0,0,0,0,-5.5544,-5.546,-5.568,-5.5651,-5.5649,-5.5759,-5.576,-5.5762,-5.568,-5.5676,-5.5671,-5.5666,-5.5741,-5.5748,-5.5756,-5.5896,0,0,-5.5778,-5.5782,0,0,0,0,0,0,0,0,-5.5539,-5.5553,-5.5654,-5.5653,-5.5651,-5.5705,-5.5708,-5.5807,-5.5681,-5.5668,-5.567,-5.5664,-5.5735,-5.5742,-5.5767,-5.59,-5.5903,-5.5779,-5.5783,-5.5787,-5.5789,0,0,0,0,0,0,0,-5.5533,-5.5549,-5.5711,-5.5656,-5.5654,-5.5632,-5.564,-5.5726,-5.5727,-5.5669,-5.5663,-5.5674,-5.5733,-5.5761,-5.5769,-5.5904,-5.5779,-5.5785,-5.579,-5.5793,-5.6155,-5.616,0,0,0,0,0,0,-5.5531,-5.5544,-5.5709,-5.5714,-5.5583,-5.564,-5.5649,-5.5692,-5.5726,-5.5727,-5.5678,-5.567,-5.575,-5.576,-5.5771,-5.5938,-5.5787,-5.5794,-5.5798,-5.615,-5.6156,-5.6162,0,0,0,0,0,0,-5.5526,-5.5546,-5.5706,-5.5627,-5.5646,-5.5649,-5.5699,-5.5696,-5.5724,-5.5733,-5.5732,-5.5706,-5.5747,-5.576,-5.5866,-5.5939,-5.5797,-5.5804,-5.6144,-5.6152,-5.6159,-5.6273,0,0,0,0,0,0,-5.552,-5.5545,-5.56,-5.5629,-5.5651,-5.5802,-5.5703,-5.5701,-5.5737,-5.5728,-5.5759,-5.576,-5.5744,-5.5855,-5.5873,-5.5947,-5.5809,-5.6137,-5.6147,-5.6157,-5.6262,-5.6283,-5.6301,0,0,0,0,0,-5.5512,-5.5628,-5.5603,-5.5624,-5.572,-5.5806,-5.5818,-5.5799,-5.5744,-5.5798,-5.5804,-5.5759,-5.5928,-5.5867,-5.5886,-5.5963,-5.6133,-5.6145,-5.6156,-5.6254,-5.6279,-5.6301,0,0,0,0,0,0,-5.5605,-5.5631,-5.5604,-5.5733,-5.5768,-5.5792,-5.586,-5.5827,-5.5877,-5.5866,-5.5839,-5.5846,-5.5959,-5.5971,-5.5902,-5.6101,-5.6021,-5.6037,-5.6089,-5.6113,-5.6132,-5.6127,-5.5816,0,0,0,0,0,-5.5641,-5.5711,-5.5729,-5.5841,-5.586,-5.5857,-5.5894,-5.5877,-5.5911,-5.5925,-5.5939,-5.5973,-5.6033,-5.6074,-5.613,-5.6264,-5.6269,-5.6326,-5.6345,-5.6361,-5.6375,-5.6447,-5.6472,-5.62,-5.62,-5.62,0,0,-5.5714,-5.5737,-5.5783,-5.586,-5.5885,-5.5956,-5.587,-5.5949,-5.6001,-5.5937,-5.6038,-5.6049,-5.6084,-5.6205,-5.6258,-5.6219,-5.6452,-5.6376,-5.6389,-5.6394,-5.6461,-5.6487,-5.651,-5.6208,-5.6207,-5.6205,0,0,-5.5886,-5.5911,-5.6007,-5.6034,-5.6074,-5.6072,-5.6095,-5.6124,-5.613,-5.6231,-5.6184,-5.6244,-5.635,-5.6377,-5.6405,-5.6587,-5.6547,-5.6606,-5.6707,-5.6777,-5.6798,-5.6817,-5.6882,-5.6905,-5.662,-5.662,-5.662,0,-5.5972,-5.608,-5.606,-5.6143,-5.6177,-5.6124,-5.622,-5.6247,-5.6302,-5.6327,-5.6282,-5.6413,-5.6433,-5.6559,-5.6604,-5.6628,-5.6652,-5.6602,-5.6797,-5.6816,-5.6833,-5.6894,-5.6919,-5.6627,-5.6626,-5.6625,-5.6625,0,-5.6184,-5.6259,-5.6331,-5.6389,-5.6432,-5.6521,-5.6512,-5.6557,-5.6536,-5.6538,-5.6641,-5.6664,-5.6724,-5.6752,-5.6732,-5.6875,-5.6849,-5.6802,-5.6721,-5.6866,-5.6923,-5.6947,-5.6637,-5.6634,-5.6632,-5.6631,0,0,-5.6416,-5.6462,-5.6488,-5.6514,-5.6554,-5.6611,-5.6697,-5.6757,-5.6796,-5.6836,-5.6907,-5.6997,-5.6953,-5.6985,-5.6967,-5.7028,-5.717,-5.6972,-5.6972,-5.7008,-5.7329,-5.7365,-5.7393,-5.7144,-5.7149,-5.7152,-5.7326,0,-5.6588,-5.674,-5.6724,-5.6867,-5.6936,-5.6886,-5.6961,-5.6992,-5.6996,-5.7053,-5.7056,-5.7121,-5.7059,-5.7077,-5.7136,-5.7141,-5.7234,-5.7128,-5.7208,-5.7211,-5.7201,-5.7423,-5.7461,-5.7624,-5.7348,-5.7352,-5.7355,0,-5.681,-5.686,-5.7011,-5.7041,-5.7069,-5.7137,-5.7191,-5.7247,-5.7281,-5.7279,-5.7315,-5.7286,-5.7371,-5.7289,-5.7404,-5.7332,-5.7363,-5.7371,-5.7377,-5.7383,-5.7292,-5.7435,-5.7676,-5.7701,-5.739,-5.7387,-5.7384,0,-5.6964,-5.7069,-5.7173,-5.7196,-5.7233,-5.7282,-5.7299,-5.7329,-5.7367,-5.7413,-5.7437,-5.7492,-5.7522,-5.7564,-5.7551,-5.7492,-5.7669,-5.7585,-5.7669,-5.7669,-5.7708,-5.7706,-5.7957,-5.7729,-5.7728,-5.7728,-5.7727,0,-5.7158,-5.7252,-5.7242,-5.7306,-5.741,-5.739,-5.7492,-5.7503,-5.753,-5.7594,-5.7553,-5.7614,-5.7592,-5.765,-5.764,-5.7737,-5.775,-5.775,-5.7746,-5.7754,-5.7754,-5.7774,-5.7763,-5.7734,-5.7733,-5.7732,-5.7731,0,-5.7347,-5.7345,-5.7455,-5.7482,-5.7491,-5.7566,-5.7588,-5.7647,-5.7648,-5.7729,-5.7747,-5.7747,-5.7814,-5.7805,-5.7878,-5.7871,-5.7992,-5.7974,-5.7981,-5.7977,-5.8061,-5.8053,-5.8334,-5.837,-5.8118,-5.8121,-5.8123,0,-5.7472,-5.7544,-5.7579,-5.762,-5.7641,-5.7707,-5.7746,-5.7728,-5.7769,-5.7814,-5.7868,-5.7931,-5.7981,-5.809,-5.8096,-5.8152,-5.8135,-5.8229,-5.8143,-5.8148,-5.8136,-5.8132,-5.8139,-5.8246,-5.8249,-5.8252,-5.8253,0,-5.7693,-5.7688,-5.7746,-5.7804,-5.7852,-5.7896,-5.7936,-5.7971,-5.7957,-5.8005,-5.8074,-5.8113,-5.8189,-5.8252,-5.8305,-5.832,-5.8285,-5.8281,-5.8303,-5.8312,-5.8313,-5.8313,-5.8028,-5.8274,-5.8272,-5.8271,-5.827,-5.8269,-5.7853,-5.7915,-5.7949,-5.8015,-5.8044,-5.8082,-5.8139,-5.8148,-5.8206,-5.8268,-5.8253,-5.8331,-5.8362,-5.843,-5.8451,-5.851,-5.8475,-5.8507,-5.8516,-5.8524,-5.8534,-5.8304,-5.852,-5.8519,-5.8518,-5.8518,-5.8517,0,-5.8072,-5.8092,-5.8153,-5.8211,-5.8263,-5.8226,-5.8268,-5.8313,-5.8383,-5.8417,-5.8467,-5.8546,-5.8607,-5.8618,-5.8676,-5.8721,-5.8706,-5.8737,-5.8733,-5.8737,-5.8562,-5.8537,-5.8748,-5.8748,-5.8748,-5.8748,-5.8748,-5.8748,-5.8192,-5.8294,-5.8293,-5.8409,-5.8427,-5.8505,-5.8532,-5.8566,-5.8593,-5.8684,-5.8735,-5.8742,-5.8766,-5.8825,-5.8879,-5.8881,-5.8904,-5.8941,-5.8936,-5.8772,-5.8749,-5.8727,-5.8704,-5.8946,-5.8947,-5.9106,-5.9108,-5.9109]}]]